Starlink 5931

operational
NORAD ID: 56785 Int'l Des: 2023-078 Owner: SPXS Country: US Constellation: starlink
LEOCIRCULAR

Über Starlink 5931

Beschreibung wird geladen...

Live-Position

3D-Globus wird geladen...

Nächste Überflüge

Höhenverlauf

Altitude vs Time

uPlot chart will show altitude changes over time

Zweizeiliger Elementsatz

1 56785U 23078U 25353.88840087 .00000501 00000-0 49794-4 0 9995
2 56785 69.9979 185.7865 0002798 271.9988 88.0850 14.98327835141412
Epoch: 19. Dez. 2025 • Age: 11 hours

Aktueller Status

Höhe 589.4 km
Geschwindigkeit 7.57 km/s
Subsatellitenpunkt -50.34°S, 178.29°W
Startdatum 31. Mai 2023
Alter 2.5 years
Typ internet

Technische Details

Klassifizierung Payload
Masse 305.00 kg
Trockenmasse 290.00 kg
Gesamtmasse 305.00 kg
Länge 0.20 m
Durchmesser 2.80 m
Spannweite 9.00 m
Form Box + pan
Hersteller SPXS
Bus-Typ Starlink
Phasenstatus In Orbit
Besitzer/Staat SPXS/US

Große Konstellationen

Loading constellations...